Regional Weather Roundup
Issued by NWS San Diego, CA

Current Version | Previous Version | Text Only | Print | Product List | Glossary On
Versions: 1 2 3 4 5 6 7 8 9 10 11 12 13 14 15 16 17 18 19 20 21 22 23 24 25 26 27 28 29 30 31 32 33 34 35 36 37 38 39 40 41 42 43 44 45 46 47 48 49 50
000
ASUS46 KSGX 130911
RWRSGX

SAN DIEGO HOURLY WEATHER ROUNDUP
NATIONAL WEATHER SERVICE SAN DIEGO CA
100 AM PST THU DEC 13 2018

NOTE: "FAIR" INDICATES FEW OR NO CLOUDS BELOW 12,000 FEET WITH NO
SIGNIFICANT WEATHER AND/OR OBSTRUCTIONS TO VISIBILITY.

CAZ042-043-060-061-PZZ750-775-131000-

GREATER SAN DIEGO AREA

CITY           SKY/WX    TMP DP  RH WIND       PRES   REMARKS
SAN DIEGO AP   PTCLDY    55  51  86 CALM      30.19S
NATIONAL CITY    N/A     52  49  88 CALM      30.18S
CHULA VISTA      N/A     50  49  96 CALM      30.08S
IMPERIAL BEACH CLEAR     51  48  89 NE6       30.17S
BROWN FIELD    CLEAR     51  48  89 NE6       30.17R
MIRAMAR MCAS   CLEAR     50  45  83 E5        30.17S
MONTGOMERY FLD CLEAR     50  49  96 CALM      30.17S FOG
GILLESPIE FLD    N/A     46  46 100 CALM      30.18S

$$

NORTH SAN DIEGO COUNTY

CITY           SKY/WX    TMP DP  RH WIND       PRES   REMARKS
CAMP PENDLETON CLEAR     42  42 100 CALM      30.18S
OCEANSIDE AP   CLEAR     45  45 100 CALM      30.17F FOG
OCEANSIDE HBR    N/A     50  48  91 CALM      30.20S
VISTA            N/A     48  43  83 CALM      30.15S
CARLSBAD       CLEAR     51  50  96 CALM      30.16F FOG
DEL MAR          N/A     53  51  94 E1        30.19S
LA JOLLA SCRIP   N/A     56  54  92 NE2       30.17S
FALLBROOK      FAIR      54  46  76 NE3       30.18S
ESCONDIDO        N/A     49  45  85 CALM      30.19S
SAN MARCOS       N/A     52  49  89 NE1       30.21F
POWAY            N/A     45  42  88 CALM      30.20S

$$

EAST SAN DIEGO COUNTY

CITY           SKY/WX    TMP DP  RH WIND       PRES   REMARKS
RAMONA         FOG       38  37  97 CALM      30.18R VSB 1/4
LA MESA          N/A     51  49  91 CALM      30.12S
JAMUL            N/A     46  44  93 CALM      30.20R
CAMPO            N/A     56  22  26 NE16      30.15R

$$

ORANGE COUNTY AND THE LOS ANGELES BASIN

CITY           SKY/WX    TMP DP  RH WIND       PRES   REMARKS
JOHN WAYNE AP  CLEAR     53  48  83 CALM      30.18S
LAKE FOREST FR   N/A     50  44  80 NE2       30.07S
HUNTINGTON BCH   N/A     47  46  96 E1        30.20S
LOS ALAMITOS   FAIR      48  48 100 CALM      30.18S
FULLERTON      CLEAR     50  46  86 CALM      30.18S FOG
LONG BEACH     FOG       51  48  89 CALM      30.18F VSB 3/4
L.A. AP        PTCLDY    56  51  84 VRB3      30.18S
L.A. DOWNTOWN  CLEAR     52  49  89 CALM      30.17F FOG

$$

THE INLAND EMPIRE

CITY           SKY/WX    TMP DP  RH WIND       PRES   REMARKS
CORONA         CLEAR     46  46 100 NE3       30.21S FOG
CHINO          FOG       47  47 100 CALM      30.21S VSB 1
ONTARIO        PTCLDY    49  46  90 NE5       30.19F
SAN BERNARDINO FAIR      44  37  75 E5        30.21S HAZE
RIVERSIDE AP   CLEAR     48  46  93 NE6       30.20S
MORENO VALLEY    N/A     48  45  90 CALM      28.31S
MARCH ARB      CLEAR     40  40 100 CALM      30.20S FOG
HEMET EAST       N/A     49  32  52 CALM      30.15S
FRENCH VALLEY  FAIR      45  45 100 N6        30.20S
TEMECULA         N/A     47  46  96 CALM      30.21R

$$

SAN BERNARDINO AND RIVERSIDE COUNTY MOUNTAINS

CITY           SKY/WX    TMP DP  RH WIND       PRES   REMARKS
BIG BEAR AP    CLEAR     23  10  58 CALM      30.33S
ANGELUS OAKS     N/A     40  13  34 CALM      30.17R

$$

SOUTHERN DESERT INCLUDING THE COACHELLA VALLEY

CITY           SKY/WX    TMP DP  RH WIND       PRES   REMARKS
PALM SPRINGS   CLEAR     52  37  56 NW5       30.21S
THOUSAND PALMS   N/A     49  33  52 W2        30.16F
PALM DESERT      N/A     51  36  56 CALM      32.00S
THERMAL        CLEAR     44  38  79 N3        30.18R
BORREGO AP     FAIR      43  37  81 CALM      30.20S
IMPERIAL AP    CLEAR     50  42  74 W3        30.18R
EL CENTRO NAS  CLEAR     49  40  71 SW5       30.20R
YUMA AZ        CLEAR     49  42  77 CALM      30.18R
MEXICALI       CLEAR     50  45  81 N6        30.19R

$$

UPPER DESERT

CITY           SKY/WX    TMP DP  RH WIND       PRES   REMARKS
HESPERIA         N/A     42  27  56 W6        30.32S
APPLE VALLEY     N/A     29  27  91 CALM      30.36S
PALMDALE       CLEAR     38  31  76 S7        30.26F WCI  33
LANCASTER      CLEAR     36  30  79 CALM      30.26F
EDWARDS AFB    CLEAR     36  36 100 SW7       30.24F WCI  31
DAGGETT        CLEAR     45  30  55 W15       30.25S
29 PALMS N     CLEAR     44  26  49 NW5       30.31S

$$

REGIONAL REPORTS

CITY           SKY/WX    TMP DP  RH WIND       PRES   REMARKS
SANTA BARBARA  CLEAR     45  45 100 CALM      30.18F
SANDBERG       CLEAR     49  22  34 NE8       30.29S
LAS VEGAS NV   MOCLDY    48  16  27 CALM      30.29R
PHOENIX AZ     PTCLDY    50  41  71 CALM      30.15R
TIJUANA        CLEAR     52  50  93 CALM      30.18S

$$

OFFSHORE ISLANDS

CITY           SKY/WX    TMP DP  RH WIND       PRES   REMARKS
CATALINA ARPT  CLEAR     58  33  39 NE6       30.19F
SAN CLEMENTE I CLEAR     56 N/A N/A CALM      30.18S
SAN NICOLAS IS CLOUDY    58 N/A N/A N9        30.17F

$$

MARINE AND OFFSHORE BUOY REPORTS

STATION/POSITION SKY/WX   TEMP    WIND        PRES    VSBY  SWELL
                          AIR SEA DIR/SP/G                  HT/PER/DIR
                          (F)     (DEG/KT/KT) (MB)    (MI)  (FT/S/D)
TANNER BANKS               60 62              1021.2F
S CLEMENTE BASIN           61 63   60/  6/  8 1021.3F         5/290/ 9
SAN NICOLAS IS.               61                N/A           5/300/12
SO. S. ROSA ISLA           59 60   30/  4/  4 1021.6F         7/300/11
W. S. BARBARA CH                                N/A           7/280/ 8
M. S. BARBARA CH           60 62   CALM  /  2 1022.4F         3/260/11
S. MONICA BASIN            60 62   10/  6/  6 1021.5F         3/260/10
S PEDRO CHANNEL               62                N/A           2/260/12
OCEANSIDE OFFSHR              63                N/A           2/240/12
TORREY PINES OTR              63                N/A           2/280/11
SAN DIEGO BAY                                 1021.4S
IMPERIAL BEACH                62                N/A           2/270/13
POINT LOMA SOUTH              65                N/A           2/280/13

$$




USA.gov is the U.S. government's official web portal to all federal, state and local government web resources and services.